CW1259 Weather Reports


Display with metric or nautical units.
time (UTC)temp
F
wind
direction
speed
MPH
gust
MPH
rain 1hr
in
rain 24hr
in
rain mn
in
humidity
%
barometer
mb
20260507223326 55 336 6.0 18.0 0.00 0.10 0.06 42 1005.0
20260507223048 55 355 5.0 18.0 0.00 0.10 0.06 39 1005.1
20260507222321 56 344 6.0 15.0 0.00 0.10 0.06 40 1004.9
20260507221515 56 5 8.0 15.0 0.00 0.10 0.06 38 1005.0
20260507221341 56 310 7.0 15.0 0.00 0.10 0.06 39 1004.9
20260507220315 57 319 7.0 13.0 0.00 0.10 0.06 37 1004.7
20260507220025 56 350 7.0 13.0 0.00 0.12 0.06 37 1004.9
20260507215337 57 308 8.0 15.0 0.00 0.12 0.06 37 1004.8
20260507214530 56 307 7.0 16.0 0.00 0.12 0.06 36 1005.0
20260507214338 57 349 10.0 21.0 0.00 0.12 0.06 36 1004.8
20260507213312 57 38 9.0 19.0 0.00 0.12 0.06 37 1004.8
20260507213044 56 326 10.0 19.0 0.00 0.12 0.06 37 1004.9
20260507212335 57 333 9.0 19.0 0.00 0.12 0.06 36 1004.8
20260507211554 57 322 10.0 18.0 0.00 0.12 0.06 35 1004.8
20260507211313 58 338 10.0 18.0 0.00 0.12 0.06 35 1004.7
20260507210335 58 299 8.0 20.0 0.00 0.12 0.06 39 1004.7
20260507210055 58 297 12.0 20.0 0.00 0.19 0.06 36 1004.7
20260507205330 58 291 11.0 21.0 0.00 0.19 0.06 37 1004.5
20260507204523 58 277 7.0 21.0 0.00 0.19 0.06 36 1004.6
20260507204331 58 309 11.0 21.0 0.00 0.19 0.06 35 1004.5
20260507203324 58 298 13.0 24.0 0.00 0.19 0.06 35 1004.4
20260507203041 58 339 12.0 23.0 0.00 0.19 0.06 37 1004.5
20260507202317 58 340 15.0 23.0 0.00 0.19 0.06 34 1004.2
20260507201508 58 265 13.0 22.0 0.00 0.19 0.06 34 1004.3
20260507201317 58 327 12.0 22.0 0.00 0.19 0.06 36 1004.3
20260507200312 58 273 10.0 23.0 0.00 0.19 0.06 37 1004.4
20260507200028 58 340 11.0 23.0 0.00 0.23 0.06 35 1004.5
20260507195332 58 321 14.0 25.0 0.00 0.23 0.06 36 1004.5
20260507194556 58 321 8.0 20.0 0.00 0.23 0.06 40 1004.5
20260507194326 58 15 11.0 20.0 0.00 0.23 0.06 37 1004.3
20260507193328 58 5 15.0 26.0 0.00 0.23 0.06 41 1004.4
20260507193011 57 343 8.0 14.0 0.00 0.23 0.06 45 1004.6
20260507192321 57 331 10.0 14.0 0.00 0.23 0.06 43 1004.6
20260507191549 57 310 11.0 19.0 0.00 0.23 0.06 41 1004.7
20260507191340 58 311 12.0 19.0 0.00 0.23 0.06 42 1004.7
20260507190312 58 295 7.0 22.0 0.00 0.23 0.06 44 1004.6
20260507190037 58 341 13.0 22.0 0.00 0.34 0.06 41 1004.9
20260507185333 58 306 10.0 17.0 0.00 0.34 0.06 41 1004.7
20260507184506 58 9 6.0 20.0 0.00 0.34 0.06 43 1004.8
20260507184325 58 279 10.0 22.0 0.00 0.34 0.06 41 1004.8
20260507183324 58 314 11.0 18.0 0.00 0.34 0.06 47 1004.8
20260507183042 58 312 10.0 20.0 0.00 0.34 0.06 50 1004.8
20260507182318 58 261 9.0 23.0 0.00 0.34 0.06 52 1004.7
20260507181510 58 283 14.0 26.0 0.00 0.34 0.06 53 1004.9
20260507181319 58 295 10.0 18.0 0.00 0.34 0.06 53 1004.8
20260507180313 58 309 9.0 20.0 0.00 0.34 0.06 54 1004.7
20260507180028 57 272 11.0 20.0 0.00 0.34 0.06 53 1004.9
20260507175320 59 275 12.0 17.0 0.00 0.34 0.06 54 1004.9
20260507174604 57 279 8.0 18.0 0.00 0.34 0.06 59 1005.0
20260507174312 57 348 11.0 18.0 0.00 0.34 0.06 58 1004.9
20260507173333 56 336 12.0 26.0 0.00 0.34 0.06 56 1005.0
20260507173056 56 322 15.0 26.0 0.00 0.34 0.06 56 1005.1
20260507172326 55 302 5.0 16.0 0.00 0.34 0.06 57 1005.0
20260507171522 56 308 11.0 19.0 0.00 0.34 0.06 55 1005.1
20260507171325 57 290 10.0 17.0 0.00 0.34 0.06 56 1005.0
20260507170341 58 329 8.0 14.0 0.00 0.34 0.06 57 1005.2
20260507170033 57 239 4.0 16.0 0.00 0.34 0.06 55 1005.2
20260507165320 57 272 8.0 16.0 0.00 0.34 0.06 58 1005.3
20260507164550 55 277 7.0 16.0 0.00 0.34 0.06 60 1005.4
20260507164335 56 323 11.0 16.0 0.00 0.34 0.06 59 1005.3
20260507163317 55 314 7.0 14.0 0.00 0.34 0.06 58 1005.3
20260507163054 55 306 5.0 14.0 0.00 0.34 0.06 58 1005.4
20260507162331 56 333 6.0 13.0 0.00 0.34 0.06 59 1005.4
20260507161521 55 334 2.0 16.0 0.00 0.34 0.06 58 1005.8
20260507161334 56 344 6.0 16.0 0.00 0.34 0.06 58 1005.7
20260507160328 56 309 4.0 15.0 0.00 0.34 0.06 58 1005.8
20260507160041 55 338 8.0 15.0 0.00 0.34 0.06 57 1005.9
20260507155328 56 323 8.0 16.0 0.00 0.34 0.06 56 1005.9
20260507154506 57 254 7.0 16.0 0.00 0.34 0.06 56 1006.1
20260507154320 57 294 10.0 16.0 0.00 0.34 0.06 55 1006.1
20260507153315 56 311 5.0 11.0 0.00 0.34 0.06 58 1006.1
20260507153024 56 315 6.0 11.0 0.00 0.34 0.06 57 1006.2
20260507152318 57 360 3.0 12.0 0.00 0.34 0.06 54 1006.2
20260507151554 57 281 3.0 11.0 0.00 0.34 0.06 59 1006.2
20260507151329 57 355 4.0 11.0 0.00 0.34 0.06 58 1006.1
20260507150326 56 318 7.0 14.0 0.00 0.34 0.06 59 1006.1
20260507150007 56 355 7.0 14.0 0.00 0.34 0.06 58 1006.3
20260507145317 56 355 2.0 12.0 0.00 0.34 0.06 62 1006.2
20260507144531 55 270 6.0 12.0 0.00 0.34 0.06 65 1006.3
20260507144335 55 227 6.0 11.0 0.00 0.34 0.06 64 1006.2
20260507143331 55 360 6.0 11.0 0.00 0.34 0.06 68 1006.4
20260507143047 54 287 3.0 9.0 0.00 0.34 0.06 67 1006.5
20260507142321 54 281 6.0 14.0 0.00 0.34 0.06 67 1006.3
20260507141506 53 317 5.0 14.0 0.00 0.34 0.06 66 1006.6
20260507141316 54 10 8.0 11.0 0.00 0.34 0.06 67 1006.5
20260507140337 53 349 4.0 10.0 0.00 0.34 0.06 70 1006.6
20260507140020 52 313 4.0 10.0 0.00 0.34 0.06 70 1006.7
20260507135328 53 340 7.0 10.0 0.00 0.34 0.06 71 1006.7
20260507134549 52 321 4.0 11.0 0.00 0.34 0.06 72 1006.8
20260507134317 52 17 7.0 13.0 0.00 0.34 0.06 70 1006.6
20260507133318 52 334 6.0 12.0 0.00 0.34 0.06 71 1006.8
20260507133002 51 31 6.0 12.0 0.00 0.34 0.06 71 1006.8
20260507132313 52 304 7.0 13.0 0.00 0.34 0.06 71 1006.6
20260507131536 51 338 7.0 14.0 0.00 0.34 0.06 72 1006.7
20260507131350 51 310 7.0 14.0 0.00 0.34 0.06 73 1006.7
20260507130318 50 347 6.0 14.0 0.00 0.34 0.06 74 1006.6
20260507130020 50 344 4.0 14.0 0.00 0.34 0.06 72 1006.7
20260507125314 50 327 7.0 12.0 0.00 0.34 0.06 73 1006.6
20260507124548 49 15 6.0 14.0 0.00 0.34 0.06 74 1006.6
20260507124349 50 355 8.0 14.0 0.00 0.34 0.06 74 1006.7
20260507123319 49 350 5.0 11.0 0.00 0.34 0.06 77 1006.9
20260507123035 48 281 5.0 13.0 0.00 0.34 0.06 76 1006.9
20260507122312 48 324 8.0 14.0 0.00 0.34 0.06 75 1006.9
20260507121608 47 321 5.0 12.0 0.00 0.34 0.06 77 1007.0
20260507121311 48 326 5.0 12.0 0.00 0.34 0.06 78 1007.0
20260507120322 47 332 6.0 16.0 0.00 0.34 0.06 78 1007.0
20260507120029 47 15 4.0 16.0 0.00 0.34 0.06 78 1007.1
20260507115320 47 336 8.0 16.0 0.00 0.34 0.06 78 1007.0
20260507114543 46 342 7.0 16.0 0.00 0.34 0.06 79 1007.1
20260507114337 47 306 6.0 16.0 0.00 0.34 0.06 78 1006.8
20260507113325 46 321 7.0 14.0 0.00 0.34 0.06 81 1007.0
20260507113040 45 355 6.0 14.0 0.00 0.34 0.06 82 1007.0
20260507112317 45 343 6.0 11.0 0.00 0.34 0.06 85 1006.9
20260507111507 44 340 6.0 11.0 0.00 0.34 0.06 88 1006.9
20260507111338 44 313 5.0 11.0 0.00 0.34 0.06 88 1006.9